INTELSAT 37E (IS-37E) (42950 NORAD) Tracking and Keplerian Element Data

This shows tracking and keplerian element data for the satellite.

Feedback or suggestion? Click here.




ElementValue
Catalog42950
NameINTELSAT 37E (IS-37E)
Epoch Orbit1061
Epoch Day222.94355083
Epoch Year2020
RAAN110.354
Inclination0.0144
Eccentricity0.0003099
Argument of Perigee44.6818
Mean Anonmoly125.5135
Mean Motion1.00272779
Decay Rate-1.43E-06
L11 42950U 17059A 20222.94355083 -.00000143 00000-0 00000+0 0 9995
L22 42950 0.0144 110.3540 0003099 44.6818 125.5135 1.00272779 10612

Live tracking and technical data element details for INTELSAT 37E (IS-37E) (NORAD 42950). INTELSAT 37E (IS-37E) can be tracked NOW for your location showing map with azimuth and elevation plus other details from your city location.

Track the satellite on the map from your city or location and see movement details for azimuth, elevation, latitude, longitude, range, height, and movement on the map or in text.







IsCatalogInMostPopularTable: catalog: 42950, numindb: 766
Update: records affected: 1



GetName: 42950 INTELSAT 37E (IS-37E)

Hit Count: updated at: Mon, 10 Aug 2020 21:34:31 GMT